OBJECT H, 62721

Orbit data source: Space-Track

You're viewing an Uncataloged Satellite

Recently launched and/or uncataloged satellites may have evolving metadata. Metadata may include but not limited to: Owner, Maufacturer, Bus, Motor, and Mission.

OBJECT H, 62721 is a satellite owned by PLA SSF (CN) in LEO that was launched on Thu, 14 Dec 2023 UTC launched from the Jiuquan Satellite Launch Center, China (JSC). Unknown objects in Earth's orbit typically refer to objects detected orbiting the Earth but have not yet been identified or cataloged. These objects could be anything from previously untracked satellites, spent rocket stages, debris from satellite collisions, or even natural meteoroids temporarily captured by Earth's gravity.

Loading next visibility...
Identifier
62721, 2023-195H
Orbit
LEO
Country
Flag of CNCN / PRC
Related business
Manufacturer
CAST
Mission
Spacecraft
Bus & Motor
Unknown
Mass
Unknown
Launch date (UTC)
2023-12-14 (3 years ago)
Launch vehicle
Unknown
Launch site
Jiuquan Satellite Launch Center, China (JSC)
Object type
Unknown
Shape & HBR
Unknown shape, 0.1 m
Radar Cross Section
Small (<0.1 m²)

Expand to show TLE details & history
Last TLE update: 2 weeks ago

TLE from 2 weeks ago
0 OBJECT H
1 62721U 23195H   26160.58309661  .00008299  00000-0  56119-3 0  9994
2 62721  49.9863 268.3685 0001460 336.5147  23.5734 15.07255325 98452
Epoch: 2026-06-09T13:59Z
TLE epoch observation values (Epoch: 2026-06-09T13:59:39.547Z)
Latitude
-0.00001°
Longitude
160.50019°
Altitude
544.213 km
Speed
7.592 km/s
True Right ascension
17h 53m 28s
True Declination
0° 00' 00"
Sunlit
Object was in full shadow at epoch
Visualization orbit readout
Latitude
Unknown
Longitude
Unknown
Altitude
Unknown
Speed
Unknown
Apparent Right ascension
Unknown
Apparent Declination
Unknown
Sunlit
N/A
Visualization observer readout
Local Sidereal Time
07:18:22
Azimuth
Unknown
Elevation
Unknown
Doppler factor
Unknown
Orbital elements
Apogee altitude
546.371 km
Perigee altitude
544.349 km
Semi-major axis
6,923.497 km
Eccentricity
0.00015
Inclination
49.9863°
RAAN
268.3685°
Arg. of periapsis
336.5147°
True anomaly
23.58009°
Mean anomaly
23.5734°
Eccentric anomaly
23.57675°
Mean motion
3.76751 °/min
Orbital period
95.55 mins
BSTAR
0.00056119
Loading maneuver chart data...
Computing Atmospheric mass density...
Loading historical data...
Loading historical data...
Loading historical data...
Loading historical data...
Loading historical data...
Loading historical data...
Loading historical data...

Documentation

Showing up to 5 results
|